Location: Newark
(52.2583°N, 7.1190°W)
Time: 19:41:09
(UTC+00:00)

deb Explorer IX - Visible Passes

Search period start: 11 November 2019 00:00
Search period end: 21 November 2019 00:00
Orbit: 546 x 1105 km, 38.8° (Epoch: 09 November)

Date Brightness Start Highest point End Pass type
(mag) Time Alt. Az. Time Alt. Az. Time Alt. Az.
11 Nov ? 05:11:45 10° S 05:12:47 11° SSE 05:13:48 10° SSE visible
11 Nov ? 06:56:16 10° SSW 06:58:33 14° S 07:00:44 10° SSE visible
12 Nov ? 04:50:15 11° S 04:50:53 11° SSE 04:52:22 10° SSE visible
12 Nov ? 06:34:13 10° SW 06:36:40 14° S 06:39:00 10° SSE visible
13 Nov ? 04:29:38 12° SSE 04:29:38 12° SSE 04:30:50 10° SE visible
13 Nov ? 06:12:09 10° SW 06:14:47 15° S 06:17:16 10° SSE visible
14 Nov ? 04:08:59 11° SE 04:08:59 11° SE 04:09:15 10° SE visible
14 Nov ? 05:50:22 11° SW 05:52:53 16° S 05:55:33 10° SSE visible
15 Nov ? 05:29:40 15° SSW 05:30:59 16° S 05:33:49 10° SE visible
16 Nov ? 05:08:57 17° S 05:09:04 17° S 05:12:05 10° SE visible
16 Nov ? 06:54:11 10° SSW 06:54:44 10° SSW 06:55:17 10° SSW visible
17 Nov ? 04:48:13 17° S 04:48:13 17° S 04:50:20 10° SE visible
17 Nov ? 06:31:48 10° SW 06:32:49 11° SSW 06:33:48 10° S visible
18 Nov ? 04:27:29 14° SSE 04:27:29 14° SSE 04:28:35 10° SE visible
18 Nov ? 06:09:31 10° SW 06:10:53 11° SSW 06:12:12 10° S visible
19 Nov ? 04:06:46 10° SE 04:06:46 10° SE 04:06:49 10° SE visible
19 Nov ? 05:48:09 11° SW 05:48:57 12° SSW 05:50:34 10° S visible
20 Nov ? 05:27:27 12° SSW 05:27:27 12° SSW 05:28:53 10° S visible
